Regional Weather Roundup
Issued by NWS

Home | Current Version | Previous Version | Graphics & Text | Print | Product List | Glossary On
Versions: 1 2 3 4 5 6 7 8 9 10 11 12 13 14 15 16 17 18 19 20 21 22 23 24 25 26 27 28 29 30 31 32 33 34 35 36 37 38 39 40 41 42 43 44 45 46 47 48 49 50
000
ASUS45 KSLC 280110
RWRUT

UTAH REGIONAL WEATHER ROUNDUP
NATIONAL WEATHER SERVICE SALT LAKE CITY UT
600 PM MST THU NOV 27 2014

UTZ001>011-023>025-280200-

NORTHERN UTAH

CITY           SKY/WX    TMP DP  RH WIND       PRES   REMARKS
BRIGHAM CITY   CLOUDY    45  33  61 CALM      30.17F
HILL AFB       CLOUDY    49  26  41 SE10      30.18F
LOGAN          CLEAR     41  33  73 E7        30.17F
OGDEN          CLOUDY    48  30  49 SE7       30.16F
PROVO AIRPORT  CLOUDY    39  30  70 CALM      30.23S
SALT LAKE CITY CLOUDY    51  24  34 SE9       30.17F
VERNAL         MOCLDY    39  24  55 W7        30.25F WCI  34
WENDOVER       CLOUDY    46  28  49 S3        30.16F
HEBER CITY     CLOUDY    36  30  80 CALM      30.24S
WEST JORDAN    CLEAR     54  28  37 S12       30.18F

$$

UTZ012>022-026-027-280200-

SOUTHERN/CENTRAL UTAH

CITY           SKY/WX    TMP DP  RH WIND       PRES   REMARKS
BLANDING       CLOUDY    43  24  46 NE3       30.41F
BRYCE CANYON   MOCLDY    29  15  56 W5        30.39S WCI  24
CEDAR CITY     CLOUDY    48  18  30 SE6       30.26F
DELTA          CLOUDY    44  30  57 N5        30.23S
MILFORD        CLOUDY    48  22  35 SE5       30.23S
MOAB/CYNLANDS  CLEAR     43  22  43 NW9       30.30S
PRICE          MOCLDY    38  25  59 N9        30.32F WCI  31
ST GEORGE      CLOUDY    50  18  27 CALM      30.23S
KANAB          MOCLDY    45  19  36 N3        30.31S

$$

REGIONAL REPORTS     COLORADO/ARIZONA

CITY           SKY/WX    TMP DP  RH WIND       PRES   REMARKS
CRAIG, CO      MOCLDY    34  25  69 CALM      30.28S
GRAND JUNCTION CLOUDY    39  28  64 NW3       30.31F
RIFLE          CLOUDY    37  29  72 E7        30.33S WCI  32
MONTROSE       MOCLDY    41  24  51 CALM      30.35R
CORTEZ         CLEAR     35  22  58 NE6       30.36S WCI  30
PAGE, AZ       CLOUDY    50  21  32 CALM      30.29S
GRAND CANYON   CLOUDY    45  10  24 CALM      30.35S
KINGMAN        CLOUDY    53  17  24 CALM      30.21S
FLAGSTAFF      MOCLDY    47  18  31 CALM      30.38S

$$

REGIONAL REPORTS    NEVADA/IDAHO/WYOMING

CITY           SKY/WX    TMP DP  RH WIND       PRES   REMARKS
LAS VEGAS, NV  MOCLDY    60  22  23 S8        30.13F
ELY            CLOUDY    42  15  33 CALM      30.27S
ELKO           CLOUDY    47  34  60 NW3       30.17F
POCATELLO, ID  CLEAR     52  26  36 S16       30.10F
BURLEY         CLOUDY    50  32  50 SW8       30.08F
EVANSTON, WY   MOCLDY    42  22  44 SW10      30.26F
ROCK SPRINGS   PTCLDY    44  21  40 W15       30.20F

$$



USA.gov is the U.S. government's official web portal to all federal, state and local government web resources and services.